Location: Appleton
(44.2618°N, 88.4157°W)
Time: 16:04:35
(UTC+00:00)

Altair - All Passes

Search period start: 26 February 2021 00:00
Search period end: 08 March 2021 00:00
Orbit: 1501 x 1682 km, 47.2° (Epoch: 25 February)

Date Brightness Start Highest point End Pass type
(mag) Time Alt. Az. Time Alt. Az. Time Alt. Az.
26 Feb - 01:14:14 10° SSW 01:22:49 45° SE 01:31:41 10° ENE visible
26 Feb - 03:17:40 10° WSW 03:27:02 88° NNW 03:36:49 10° ENE visible
26 Feb - 05:22:47 10° W 05:32:19 76° N 05:42:16 10° E visible
26 Feb - 07:27:42 10° WNW 07:37:20 73° SSW 07:47:19 10° SE visible
26 Feb - 09:33:09 10° WNW 09:41:05 29° SW 09:49:13 10° S visible
27 Feb - 00:49:18 10° SSW 00:57:45 42° SE 01:06:25 10° ENE visible
27 Feb - 02:52:30 10° WSW 03:01:51 90° SSE 03:11:35 10° ENE visible
27 Feb - 04:57:35 10° W 05:07:05 75° N 05:16:59 10° E visible
27 Feb - 07:02:31 10° WNW 07:12:09 76° SSW 07:22:09 10° SE night (unlit)
27 Feb - 09:07:49 10° WNW 09:16:00 31° SW 09:24:23 10° S visible
28 Feb - 00:24:24 10° SSW 00:32:40 39° SE 00:41:09 10° ENE visible
28 Feb - 02:27:21 10° WSW 02:36:40 87° SSE 02:46:20 10° ENE visible
28 Feb - 04:32:23 10° W 04:41:51 75° N 04:51:43 10° E visible
28 Feb - 06:37:21 10° WNW 06:46:58 79° SSW 06:56:57 10° ESE visible
28 Feb - 08:42:31 10° WNW 08:50:54 34° SW 08:59:32 10° SSE visible
28 Feb - 23:59:32 10° SSW 00:07:36 36° SE 00:15:52 10° ENE visible
01 Mar - 02:02:13 10° WSW 02:11:29 84° SSE 02:21:07 10° ENE visible
01 Mar - 04:07:11 10° W 04:16:37 75° N 04:26:26 10° E visible
01 Mar - 06:12:10 10° WNW 06:21:47 83° SSW 06:31:45 10° ESE visible
01 Mar - 08:17:15 10° WNW 08:25:49 37° SW 08:34:38 10° SSE visible
01 Mar - 23:34:42 10° SSW 23:42:33 33° SE 23:50:33 10° ENE daylight
02 Mar - 01:37:05 10° WSW 01:46:19 80° SSE 01:55:54 10° ENE visible
02 Mar - 03:41:59 10° W 03:51:22 75° N 04:01:10 10° E visible
02 Mar - 05:47:00 10° WNW 05:56:35 86° SSW 06:06:32 10° ESE visible
02 Mar - 07:52:00 10° WNW 08:00:43 39° SW 08:09:42 10° SSE night (unlit)
02 Mar - 23:09:54 10° S 23:17:30 30° SE 23:25:13 10° ENE daylight
03 Mar - 01:11:58 10° WSW 01:21:10 77° SSE 01:30:40 10° ENE visible
03 Mar - 03:16:47 10° W 03:26:08 75° N 03:35:54 10° E visible
03 Mar - 05:21:49 10° WNW 05:31:22 88° SSW 05:41:18 10° ESE visible
03 Mar - 07:26:46 10° WNW 07:35:36 42° SW 07:44:44 10° SSE night (unlit)
03 Mar - 09:37:04 10° WSW 09:38:25 10° WSW 09:39:48 10° SW night (unlit)
03 Mar - 22:45:09 10° S 22:52:28 28° SE 22:59:53 10° ENE daylight
04 Mar - 00:46:52 10° SW 00:56:00 73° SSE 01:05:27 10° ENE visible
04 Mar - 02:51:35 10° W 03:00:56 75° N 03:10:38 10° E visible
04 Mar - 04:56:39 10° WNW 05:06:10 89° NNE 05:16:05 10° ESE visible
04 Mar - 07:01:33 10° WNW 07:10:29 45° SW 07:19:45 10° SSE night (unlit)
04 Mar - 09:10:08 10° WSW 09:13:25 12° WSW 09:16:44 10° SW night (unlit)
04 Mar - 22:20:26 10° S 22:27:26 25° SE 22:34:31 10° E daylight
05 Mar - 00:21:47 10° SW 00:30:53 70° SSE 00:40:14 10° ENE visible
05 Mar - 02:26:23 10° W 02:35:42 76° N 02:45:22 10° E visible
05 Mar - 04:31:28 10° WNW 04:40:58 86° NNE 04:50:50 10° ESE visible
05 Mar - 06:36:20 10° WNW 06:45:22 49° SW 06:54:44 10° SSE visible
05 Mar - 08:44:03 10° W 08:48:24 14° WSW 08:52:48 10° SSW night (unlit)
05 Mar - 21:55:47 10° S 22:02:25 23° SE 22:09:07 10° E daylight
05 Mar - 23:56:42 10° SW 00:05:45 66° SSE 00:15:02 10° ENE visible
06 Mar - 02:01:11 10° W 02:10:29 77° N 02:20:07 10° ENE visible
06 Mar - 04:06:18 10° WNW 04:15:46 84° NNE 04:25:35 10° ESE visible
06 Mar - 06:11:08 10° WNW 06:20:15 52° SW 06:29:42 10° SE visible
06 Mar - 08:18:15 10° W 08:23:22 16° SW 08:28:35 10° SSW night (unlit)
06 Mar - 21:31:11 10° S 21:37:24 21° SE 21:43:39 10° E daylight
06 Mar - 23:31:39 10° SW 23:40:38 62° SSE 23:49:48 10° ENE daylight
07 Mar - 01:36:00 10° W 01:45:16 78° N 01:54:52 10° ENE visible
07 Mar - 03:41:08 10° WNW 03:50:33 82° NNE 04:00:20 10° ESE visible
07 Mar - 05:45:56 10° WNW 05:55:07 55° SW 06:04:38 10° SE visible
07 Mar - 07:52:35 10° W 07:58:20 18° SW 08:04:12 10° SSW night (unlit)
07 Mar - 21:06:40 10° SSE 21:12:23 18° SE 21:18:08 10° E daylight
07 Mar - 23:06:36 10° SW 23:15:30 59° SE 23:24:36 10° ENE daylight
